Flag for Mauritania Weather past 2 weeks in Nouakchott, Mauritania

Now
77 °F

Clear.


Feels Like: 76 °F
Forecast: 69 / 96 °F
Wind: 13 mph from Northeast

Location: Nouakchott Airport

Current Time: Mar 28, 2015 at 9:58:25 AM

Latest Report: Mar 28, 2015 at 9:30 AM


Visibility: 5 mi

Pressure: 30.04 "Hg

Humidity: 11%

Dew point: 18 °F

Location of NouakchottLocation

Historic Weather in Nouakchott — Graph

°F

Nouakchott temperature yesterday

Maximum temperature yesterday: 95 °F (at 2:30 PM)
Minimum temperature yesterday: 63 °F (at 6:30 AM)
Average temperature yesterday: 78 °F

Past Weeks' High & Low Weather Summary

 TemperatureHumidityPressure
High97 °F (Mar 13, 2:00 PM)94% (Mar 17, 6:30 AM)30.04 "Hg (Mar 17, 6:30 AM)
Low57 °F (Mar 21, 7:00 AM)5% (Mar 14, 10:30 AM)29.74 "Hg (Mar 13, 4:30 PM)
Average72 °F44%29.90 "Hg
* Reported Mar 13 8:00 AM — Mar 28 8:30 AM, Nouakchott, Weather by CustomWeather, © 2015

Note: Actual official high and low records may vary slightly from our data, if they occured in-between our weather recording intervals... More about our weather records

Advertising

Nouakchott weather history for previous 24 hours

 ConditionsComfort  
Time TempWeatherWind HumidityBarometerVisibility
8:30 AM
Sat, Mar 28
72 °FClear.9 mph19%30.04 "Hg5 mi
8:00 AM68 °FClear.7 mph21%30.01 "Hg5 mi
7:30 AM66 °FClear.8 mph26%30.01 "Hg5 mi
7:00 AM66 °FClear.8 mph28%29.98 "Hg5 mi
6:30 AM66 °FClear.9 mph30%29.98 "Hg5 mi
6:00 AM68 °FClear.10 mph33%29.98 "Hg5 mi
5:30 AM68 °FClear.9 mph35%29.98 "Hg5 mi
5:00 AM68 °FClear.10 mph35%29.98 "Hg5 mi
4:30 AM70 °FClear.12 mph38%29.98 "Hg5 mi
4:00 AM70 °FClear.12 mph38%29.98 "Hg5 mi
3:30 AM70 °FClear.9 mph38%29.98 "Hg5 mi
3:00 AM72 °FClear.10 mph38%29.98 "Hg5 mi
2:30 AM72 °FClear.12 mph38%29.98 "Hg5 mi
2:00 AM72 °FClear.14 mph36%30.01 "Hg5 mi
1:30 AM72 °FClear.13 mph33%30.01 "Hg5 mi
1:00 AM73 °FClear.13 mph29%30.01 "Hg5 mi
12:30 AM75 °FClear.13 mph25%30.01 "Hg5 mi
12:00 AM73 °FClear.10 mph36%30.04 "Hg5 mi
11:30 PM
Fri, Mar 27
73 °FClear.8 mph50%30.04 "Hg5 mi
11:00 PM75 °FClear.8 mph41%30.04 "Hg5 mi
10:30 PM75 °FClear.6 mph44%30.01 "Hg5 mi
10:00 PM75 °FClear.6 mph47%30.01 "Hg5 mi
9:30 PM75 °FClear.7 mph44%30.01 "Hg5 mi
9:00 PM77 °FClear.10 mph36%30.01 "Hg5 mi
8:30 PM77 °FClear.10 mph34%29.98 "Hg5 mi
8:00 PM79 °FClear.10 mph32%29.98 "Hg5 mi
7:30 PM79 °FClear.10 mph32%29.98 "Hg5 mi
7:00 PM82 °FClear.10 mph28%29.95 "Hg5 mi
6:30 PM84 °FClear.8 mph29%29.95 "Hg5 mi
6:00 PM93 °FClear.7 mph21%29.95 "Hg5 mi
5:30 PM95 °FClear.10 mph8%29.92 "Hg5 mi
5:00 PM95 °FClear.10 mph8%29.92 "Hg5 mi
4:30 PM95 °FClear.12 mph8%29.92 "Hg5 mi
4:00 PM95 °FClear.9 mph9%29.92 "Hg5 mi
3:30 PM95 °FClear.12 mph8%29.95 "Hg5 mi
3:00 PM95 °FClear.10 mph8%29.95 "Hg5 mi
2:30 PM95 °FClear.12 mph8%29.95 "Hg5 mi
2:00 PM93 °FClear.13 mph8%29.98 "Hg5 mi
1:30 PM93 °FClear.13 mph8%29.98 "Hg5 mi
1:00 PM91 °FClear.15 mph9%30.01 "Hg5 mi
12:30 PM90 °FClear.16 mph9%30.01 "Hg5 mi
12:00 PM90 °FClear.16 mph9%30.04 "Hg5 mi
11:30 AM88 °FClear.17 mph11%30.04 "Hg5 mi
11:00 AM86 °FClear.18 mph11%30.04 "Hg5 mi
10:30 AM82 °FClear.17 mph13%30.04 "Hg5 mi
10:00 AM79 °FClear.14 mph13%30.04 "Hg5 mi
9:30 AM75 °FClear.13 mph18%30.04 "Hg5 mi
9:00 AM70 °FClear.12 mph21%30.01 "Hg5 mi
Weather by CustomWeather, © 2015

See weather overviewHow to use our weather pages